Flag for Germany Weather past 2 weeks in Marburg, Hesse, Germany

Now
35 °F

Low clouds.


Feels Like: 30 °F
Forecast: 35 / 42 °F
Wind: 6 mph from Southwest

Location: Giessen

Current Time: Apr 1, 2015 at 5:30:56 AM

Latest Report: Apr 1, 2015 at 5:00 AM


Visibility: 18 mi

Pressure: 29.88 "Hg

Humidity: 92%

Dew point: 33 °F

Location of MarburgLocation

Historic Weather in Marburg — Graph

°F

Marburg temperature yesterday

Maximum temperature yesterday: 52 °F (at 1:00 PM)
Minimum temperature yesterday: 39 °F (at 3:00 AM)
Average temperature yesterday: 46 °F

Past Weeks' High & Low Weather Summary

 TemperatureHumidityPressure
High63 °F (Mar 18, 3:00 PM)100% (Mar 20, 7:00 AM)30.34 "Hg (Mar 20, 7:00 AM)
Low26 °F (Mar 23, 6:00 AM)35% (Mar 20, 5:00 PM)29.29 "Hg (Mar 31, 7:00 AM)
Average44 °F78%29.97 "Hg
* Reported Mar 17 3:00 AM — Apr 1 4:00 AM, Marburg, Weather by CustomWeather, © 2015

Note: Actual official high and low records may vary slightly from our data, if they occured in-between our weather recording intervals... More about our weather records

Advertising

Marburg weather history for previous 24 hours

 ConditionsComfort  
Time TempWeatherWind HumidityBarometerVisibility
4:00 AM
Wed, Apr 1
36 °FLow clouds.13 mph87%29.87 "Hg40 mi
3:00 AM40 °FOvercast.9 mph72%29.85 "Hg28 mi
2:00 AM39 °FPassing clouds.10 mph71%29.85 "Hg43 mi
1:00 AM40 °FOvercast.9 mph71%29.84 "Hg43 mi
12:00 AM40 °FDrizzle. Overcast.8 mph87%29.80 "Hg31 mi
11:00 PM
Tue, Mar 31
41 °FOvercast.6 mph82%29.81 "Hg34 mi
10:00 PM40 °FOvercast.10 mph84%29.79 "Hg43 mi
9:00 PM41 °FRain. Low clouds.17 mph82%29.81 "Hg4 mi
8:00 PM41 °FPassing clouds.6 mph82%29.76 "Hg40 mi
7:00 PM48 °FPartly sunny.12 mph47%29.72 "Hg43 mi
6:00 PM51 °FScattered clouds.14 mph47%29.67 "Hg11 mi
5:00 PM49 °FPassing clouds.14 mph55%29.62 "Hg43 mi
4:00 PM51 °FSunny.14 mph53%29.58 "Hg8 mi
3:00 PM49 °FPartly sunny.15 mph64%29.55 "Hg22 mi
2:00 PM50 °FPartly sunny.14 mph78%29.50 "Hg9 mi
1:00 PM52 °FPartly sunny.20 mph60%29.47 "Hg10 mi
12:00 PM49 °FPartly sunny.16 mph79%29.44 "Hg8 mi
11:00 AM47 °FRain. Low clouds.14 mph85%29.41 "Hg4 mi
10:00 AM51 °FOvercast.18 mph74%29.35 "Hg25 mi
9:00 AM52 °FLight freezing rain. Low clouds.17 mph79%29.32 "Hg10 mi
8:00 AM51 °FRain. Low clouds.13 mph93%29.32 "Hg4 mi
7:00 AM52 °FRain. Low clouds.14 mph84%29.29 "Hg6 mi
6:00 AM51 °FLow clouds.17 mph84%29.32 "Hg12 mi
5:00 AM46 °FRain. Low clouds.8 mph92%29.41 "Hg9 mi
Weather by CustomWeather, © 2015

See weather overviewHow to use our weather pages